Content
SEND FEEDBACK

Daily
Averages
Monthly
Summary
United States of America

WASCO, OREGON


Home > North America > United States > Oregon
Elevation: 127 feet     Latitude: 45 35N     Longitude: 120 42W

WEATHER
 
SELECT A DAY
Number of Records: 164,351;   Date Range: 1/1/95 - 7/29/14
 
SHARE

PRINT THIS DATA

[ ← Previous Day ]
WEATHER ALMANAC - JANUARY 23, 2013
[ Next Day → ]
[ °C ]   °F
Weather ElementAverageHighLow
Temperature28.9 °F32 °F (2:53 pm)27 °F (10:53 pm)
Dewpoint22.2 °F25 °F (7:53 pm)21 °F (3:53 am)
Humidity75.9 %85 % (10:53 pm)69 % (11:15 am)
Barometer30.14 in30.23 in (1:53 am)30.06 in (2:13 pm)
Wind Speed5.3 mph11.5 mph (8:26 am)
Weather ElementAverage
Visibility6.7 mi
Wind DirectionENE (60.7 °)

Weather ElementTotal
Precipitation---
Heating Degree Days35.5 (Base 65)
Averaged from 28 records on January 23, 2013
WEATHER CONDITIONS BREAKOUT
WIND DIRECTION BREAKOUT
WEATHER BY HOUR - JANUARY 23, 2013
[ °C ]   °F
Local TimeTemperatureDewpointHumidityBarometerVisibilityWind DirectionWind SpeedGust SpeedPrecipitationEventsConditions
1:53 AM28.0 °F21.9 °F78 %30.23 in7.0 miEast (100°)8.1 mphOvercast
2:53 AM28.0 °F21.9 °F78 %30.22 in8.0 miEast (100°)9.2 mphOvercast
3:53 AM28.0 °F21.0 °F75 %30.21 in8.0 miEast (90°)9.2 mphOvercast
4:53 AM28.0 °F21.0 °F75 %30.19 in9.0 miEast (90°)10.4 mphMostly Cloudy
5:03 AM28.4 °F21.2 °F74 %30.16 in8.0 miEast (90°)10.4 mphScattered Clouds
5:53 AM28.0 °F21.0 °F75 %30.17 in8.0 miEast (90°)8.1 mphMostly Cloudy
6:03 AM28.4 °F21.2 °F74 %30.15 in8.0 miEast (80°)8.1 mphOvercast
6:40 AM28.4 °F21.2 °F74 %30.17 in7.0 miEast (100°)9.2 mphOvercast
6:53 AM28.0 °F21.0 °F75 %30.17 in8.0 miEast (90°)9.2 mphOvercast
7:53 AM28.0 °F21.0 °F75 %30.15 in6.0 miEast (80°)9.2 mphHaze
8:26 AM28.4 °F21.2 °F74 %30.12 in4.0 miEast (90°)11.5 mphHaze
8:53 AM28.0 °F21.0 °F75 %30.14 in8.0 miEast (100°)5.8 mphOvercast
9:53 AM28.9 °F21.9 °F75 %30.15 in9.0 miEast (80°)4.6 mphOvercast
10:34 AM28.4 °F21.2 °F74 %30.12 in7.0 miEast (80°)6.9 mphOvercast
10:53 AM28.9 °F21.9 °F75 %30.13 in7.0 miEast (80°)5.8 mphOvercast
11:15 AM30.2 °F21.2 °F69 %30.12 in5.0 miENE (60°)4.6 mphHaze
11:53 AM28.9 °F21.9 °F75 %30.11 in6.0 miENE (70°)5.8 mph0.00 inHaze
12:53 PM30.0 °F23.0 °F75 %30.09 in5.0 miENE (70°)4.6 mphHaze
2:13 PM30.2 °F23.0 °F75 %30.06 in6.0 miENE (70°)3.5 mphHaze
2:22 PM30.2 °F23.0 °F75 %30.06 in6.0 miEast (90°)3.5 mphHaze
2:53 PM32.0 °F23.0 °F69 %30.07 in6.0 miCalmHaze
3:53 PM30.9 °F23.0 °F72 %30.09 in6.0 miCalmHaze
4:53 PM30.9 °F24.1 °F76 %30.09 in5.0 miCalm0.00 inOvercast
5:53 PM30.0 °F24.1 °F79 %30.10 in7.0 miCalm0.00 inOvercast
7:53 PM30.0 °F25.0 °F82 %30.13 in7.0 miCalmMostly Cloudy
9:53 PM28.9 °F24.1 °F82 %30.18 in6.0 miCalmHaze
10:53 PM27.0 °F23.0 °F85 %30.20 in5.0 miCalmScattered Clouds
11:53 PM27.0 °F23.0 °F85 %30.22 in5.0 miCalmOvercast
Hourly data recorded from KDLS, located miles away from Wasco, Oregon







STORIES FROM OUR PARTNERS